Location: Observatory
(52.1446°N, 0.4624°W)
Time: 11:00:45
(UTC+01:00)

ISS - Pass Details

Date: 02 July 2020
Orbit: 417 x 420 km, 51.6° (Epoch: 02 July)

Event Time Altitude Azimuth Distance (km) Brightness Sun altitude
Exits shadow 03:55:32 - 209° (SSW) 1,644 -1.4 -6.2°
Reaches altitude 10° 03:55:58 10° 206° (SSW) 1,491 -1.6 -6.2°
Maximum altitude 03:58:47 25° 148° (SSE) 880 -2.3 -5.9°
Drops below altitude 10° 04:01:37 10° 91° (E) 1,497 -0.4 -5.6°
Sets 04:03:55 0° 78° (ENE) 2,363 1.0 -5.4°
